Regional Weather Roundup
Issued by NWS

Home | Current Version | Previous Version | Text Only | Print | Product List | Glossary Off
Versions: 1 2 3 4 5 6 7 8 9 10 11 12 13 14 15 16 17 18 19 20 21 22 23 24 25 26 27 28 29 30 31 32 33 34 35 36 37 38 39 40 41 42 43 44 45 46 47 48 49 50

000
ASUS45 KPSR 050710
RWRAZ

ARIZONA REGIONAL HOURLY WEATHER ROUNDUP
NATIONAL WEATHER SERVICE PHOENIX AZ
1200 AM MST TUE MAY 05 2015

NOTE: FAIR INDICATES FEW OR NO CLOUDS BELOW 12,000 FEET WITH NO
SIGNIFICANT WEATHER AND/OR OBSTRUCTIONS TO VISIBILITY.

AZZ001>003-036-050800-
NORTHWEST ARIZONA

CITY           SKY/WX    TMP DP  RH WIND       PRES   REMARKS
BULLHEAD CITY  MOCLDY    66  55  68 SE5       29.87R
KINGMAN        CLOUDY    56  49  77 SW8       29.93S
$$

AZZ004>008-015-016-018-050800-
NORTH CENTRAL ARIZONA

CITY           SKY/WX    TMP DP  RH WIND       PRES   REMARKS
GRAND CANYON   MOCLDY    41  39  93 CALM      30.01S
WILLIAMS       CLOUDY    45  43  93 CALM      30.09S
PRESCOTT       CLOUDY    51  42  71 SW12      29.99S
FLAGSTAFF      CLOUDY    42  40  92 SW5       30.03S
PAYSON         LGT RAIN  52  46  82 CALM      30.02S
PAGE           CLOUDY    58  48  69 SW7       29.91R
$$

AZZ009>014-017-050800-
NORTHEAST ARIZONA

CITY           SKY/WX    TMP DP  RH WIND       PRES   REMARKS
WINSLOW        CLOUDY    53  46  77 SE9       29.98S
SAINT JOHNS    LGT RAIN  46  43  89 CALM      30.00F
WINDOW ROCK    CLOUDY    46  41  82 S10       30.03F
SHOW LOW       CLOUDY    41  39  93 S10       30.05S
$$

AZZ023-050800-
GREATER PHOENIX AREA

CITY           SKY/WX    TMP DP  RH WIND       PRES   REMARKS
PHOENIX        CLOUDY    68  56  65 E6        29.87R
DEER VALLEY    CLOUDY    67  49  52 NW6       29.87S
SCOTTSDALE     CLOUDY    68  51  54 S3        29.91R
MESA-GATEWAY   LGT RAIN  66  52  59 SE8       29.90F
$$

AZZ027-028-050800-
SOUTHWEST MARICOPA COUNTY AND PINAL COUNTY

CITY           SKY/WX    TMP DP  RH WIND       PRES   REMARKS
CASA GRANDE    MOCLDY    64  54  68 E5        29.89S
$$

AZZ503-504-507>509-050800-
SOUTHEAST ARIZONA

CITY           SKY/WX    TMP DP  RH WIND       PRES   REMARKS
TUCSON         CLOUDY    60  54  80 SW6       29.98F
NOGALES        PTCLDY    59  47  64 CALM      30.01S
SIERRA VISTA   LGT RAIN  55  48  76 W13       30.04R
DOUGLAS        CLEAR     58  41  53 N13       30.00R
SAFFORD        LGT RAIN  56  50  80 N13       29.94S
$$

AZZ020-021-025-026-031-050800-
SOUTHWEST ARIZONA

CITY           SKY/WX    TMP DP  RH WIND       PRES   REMARKS
YUMA           PTCLDY    70  56  61 NE14      29.87S
$$

CAZ031-033-041-043-047-048-061-050800-
SOUTHERN CALIFORNIA

CITY           SKY/WX    TMP DP  RH WIND       PRES   REMARKS
DOWNTOWN L.A.  CLEAR     57  50  77 CALM      30.00R
L.A. AIRPORT   PTCLDY    56  51  84 W7        30.00S
SAN DIEGO      CLOUDY    62  49  62 NW3       30.03S
BURBANK        CLEAR     56  47  71 S3        29.99R
ONTARIO        PTCLDY    56  49  77 W7        30.00R
RIVERSIDE      CLEAR     56  49  77 W5        30.00R
PALM SPRINGS   CLEAR     71  43  36 SW6       29.83R
EL CENTRO NAS  CLEAR     70  45  40 SW14      29.86R
IMPERIAL       CLEAR     71  45  39 SW7       29.84R
BLYTHE         CLOUDY    65  58  78 SE6       29.84R
NEEDLES        MOCLDY    70  51  51 N8        29.85S
$$

NVZ020-UTZ003-050800-
SOUTHERN NEVADA-UTAH

CITY           SKY/WX    TMP DP  RH WIND       PRES   REMARKS
LAS VEGAS      LGT RAIN  69  47  45 SW20G25   29.84R
SALT LAKE CITY MOCLDY    60  44  55 SE7       29.88S
$$

NMZ009-TXZ055-050800-
NEW MEXICO-WEST TEXAS

CITY           SKY/WX    TMP DP  RH WIND       PRES   REMARKS
ALBUQUERQUE    CLOUDY    55  49  80 N6        29.98F
EL PASO        PTCLDY    67  51  56 W10       29.89R
$$


........................KEY........................
SKY/WX - SKY CONDITION/WEATHER
TMP    - TEMPERATURE IN FAHRENHEIT
DP     - DEW POINT IN FAHRENHEIT
RH     - RELATIVE HUMIDITY IN PERCENT
WIND   - DIRECTION AND SPEED IN MILES PER HOUR (MPH)
VRB    - VARIABLE WIND DIRECTION
PRES   - MEAN SEA LEVEL PRESSURE IN INCHES OF MERCURY
         F - FALLING PRESSURE   R - RISING PRESSURE
         S - STEADY PRESSURE
VSB    - VISIBILITY IN MILES
HX     - HEAT INDEX IN FAHRENHEIT
WCI    - WIND CHILL INDEX IN FAHRENHEIT
TC     - TEMPERATURE IN CELSIUS WHICH IS ALSO KNOWN AS
         TEMPERATURE IN CENTIGRADE
AFB    - AIR FORCE BASE
         LUKE AFB IS LUKE AIR FORCE BASE
         DAVIS-MONTHAN IS DAVIS-MONTHAN AIR FORCE BASE
NAS    - NAVAL AIR STATION
         EL CENTRO NAS IS EL CENTRO NAVAL AIR STATION
N/A    - NOT AVAILABLE



USA.gov is the U.S. government's official web portal to all federal, state and local government web resources and services.